Location: Gwatt
(46.7204°N, 7.6223°E)
Time: 14:50:08
(UTC+00:00)

Vanguard 1 - All Passes

Search period start: 25 January 2021 00:00
Search period end: 04 February 2021 00:00
Orbit: 648 x 3834 km, 34.3° (Epoch: 24 January)

Date Brightness Start Highest point End Pass type
(mag) Time Alt. Az. Time Alt. Az. Time Alt. Az.
25 Jan - 10:13:30 10° S 10:26:18 28° SE 10:43:10 10° E daylight
25 Jan - 12:30:54 10° SW 12:48:45 51° SSE 13:10:39 10° E daylight
25 Jan - 14:52:42 10° WSW 15:14:00 58° S 15:34:41 10° ESE daylight
25 Jan - 17:17:39 10° W 17:38:35 44° SSW 17:55:13 10° SE visible
25 Jan - 19:47:38 10° W 19:59:45 18° SW 20:09:38 10° SSW visible
26 Jan - 10:32:49 10° SSW 10:46:30 34° SE 11:05:09 10° E daylight
26 Jan - 12:51:21 10° WSW 13:09:39 55° SSE 13:31:51 10° E daylight
26 Jan - 15:13:43 10° W 15:35:03 57° S 15:55:24 10° ESE daylight
26 Jan - 17:39:11 10° W 17:59:06 38° SW 18:15:03 10° SSE visible
26 Jan - 20:12:29 10° WSW 20:19:35 13° WSW 20:25:54 10° SW visible
27 Jan - 08:40:07 10° SSE 08:46:47 14° ESE 08:54:45 10° E daylight
27 Jan - 10:52:31 10° SSW 11:06:52 40° SSE 11:26:50 10° E daylight
27 Jan - 13:11:58 10° WSW 13:30:38 57° S 13:52:59 10° ESE daylight
27 Jan - 15:34:48 10° W 15:56:02 53° SSW 16:15:59 10° SE daylight
27 Jan - 18:00:57 10° W 18:19:28 32° SW 18:34:32 10° SSE visible
28 Jan - 08:57:29 10° SSE 09:06:37 20° SE 09:18:39 10° E daylight
28 Jan - 11:12:33 10° SW 11:27:24 45° SSE 11:48:20 10° E daylight
28 Jan - 13:32:43 10° WSW 13:51:41 58° S 14:14:01 10° ESE daylight
28 Jan - 15:55:59 10° W 16:16:55 49° SSW 16:36:22 10° SE daylight
28 Jan - 18:23:06 10° W 18:39:40 26° SW 18:53:31 10° S visible
29 Jan - 09:16:07 10° S 09:26:36 25° SE 09:41:18 10° E daylight
29 Jan - 11:32:47 10° SW 11:48:04 50° SSE 12:09:43 10° E daylight
29 Jan - 13:53:34 10° WSW 14:12:46 58° S 14:34:57 10° ESE daylight
29 Jan - 16:17:15 10° W 16:37:41 44° SSW 16:56:30 10° SE daylight
29 Jan - 18:45:55 10° W 18:59:45 20° SW 19:11:42 10° SSW visible
30 Jan - 09:35:25 10° SSW 09:46:43 31° SE 10:03:23 10° E daylight
30 Jan - 11:53:12 10° SW 12:08:53 54° SSE 12:31:01 10° E daylight
30 Jan - 14:14:29 10° W 14:33:49 56° S 14:55:45 10° ESE daylight
30 Jan - 16:38:41 10° W 16:58:19 39° SW 17:16:20 10° SSE visible
30 Jan - 19:10:12 10° W 19:19:43 14° SW 19:28:21 10° SSW visible
31 Jan - 07:44:40 10° SE 07:47:49 11° ESE 07:51:19 10° ESE daylight
31 Jan - 09:55:07 10° SSW 10:07:00 37° SE 10:25:08 10° E daylight
31 Jan - 12:13:46 10° WSW 12:29:48 56° S 12:52:14 10° ESE daylight
31 Jan - 14:35:28 10° W 14:54:50 53° SSW 15:16:23 10° SE daylight
31 Jan - 17:00:20 10° W 17:18:48 33° SW 17:35:48 10° SSE visible
01 Feb - 08:00:53 10° SSE 08:07:37 16° SE 08:16:23 10° E daylight
01 Feb - 10:15:06 10° SW 10:27:27 43° SSE 10:46:43 10° E daylight
01 Feb - 12:34:26 10° WSW 12:50:48 57° S 13:13:22 10° ESE daylight
01 Feb - 14:56:33 10° W 15:15:47 49° SSW 15:36:48 10° SE daylight
01 Feb - 17:22:22 10° W 17:39:09 27° SW 17:54:45 10° S visible
02 Feb - 08:19:21 10° S 08:27:33 22° SE 08:39:15 10° E daylight
02 Feb - 10:35:19 10° SW 10:48:03 48° SSE 11:08:10 10° E daylight
02 Feb - 12:55:12 10° WSW 13:11:51 57° S 13:34:22 10° ESE daylight
02 Feb - 15:17:44 10° W 15:36:37 44° SSW 15:56:57 10° SE daylight
02 Feb - 17:45:03 10° W 17:59:23 21° SW 18:12:53 10° S visible
03 Feb - 08:38:34 10° SSW 08:47:37 28° SE 09:01:25 10° E daylight
03 Feb - 10:55:42 10° SW 11:08:46 51° SSE 11:29:31 10° E daylight
03 Feb - 13:16:02 10° W 13:32:53 55° S 13:55:15 10° ESE daylight
03 Feb - 15:39:04 10° W 15:57:21 38° SSW 16:16:48 10° SSE daylight
03 Feb - 18:09:05 10° W 18:19:32 15° SW 18:29:33 10° SSW visible
